When you browse on this site, cookies collect data to enhance your experience and personalize the content and advertising you see.
Visit our Privacy Policy to learn more. By continuing to use the site, you agree to this use of cookies and data.
  • In Hungary
  • List of Countries
  • For 7 days
  • Water Temperature
  • Satellite Maps
  • Weather Map
  • News
  • Weather Widgets
  • user-avatar
    Login

    Hourly Weather Munich

    Today, 19 April, Friday

    Time Temperature Precipitation Wind Pressure Humidity
    00:00 +8°C° 0 mm 2 mps 722 mmHg 80%
    01:00 +8°C° 0 mm 1 mps 722 mmHg 81%
    02:00 +8°C° 0 mm 1 mps 723 mmHg 81%
    03:00 +6°C° 0 mm 2 mps 723 mmHg 82%
    04:00 +6°C° 0 mm 2 mps 723 mmHg 82%
    05:00 +7°C° 0 mm 2 mps 723 mmHg 79%
    06:00 +8°C° 0 mm 1 mps 723 mmHg 76%
    07:00 +9°C° 0 mm 1 mps 723 mmHg 73%
    08:00 +10°C° 0 mm 2 mps 723 mmHg 66%
    09:00 +14°C° 0 mm 2 mps 723 mmHg 59%
    10:00 +16°C° 0 mm 2 mps 724 mmHg 53%
    11:00 +17°C° 0 mm 3 mps 724 mmHg 49%
    12:00 +18°C° 0 mm 3 mps 724 mmHg 46%
    13:00 +20°C° 0 mm 4 mps 724 mmHg 42%
    14:00 +20°C° 0 mm 4 mps 724 mmHg 43%
    15:00 +20°C° 0 mm 4 mps 723 mmHg 43%
    16:00 +20°C° 0 mm 4 mps 723 mmHg 43%
    17:00 +18°C° 0 mm 4 mps 723 mmHg 51%
    18:00 +16°C° 0 mm 3 mps 723 mmHg 59%
    19:00 +13°C° 0 mm 3 mps 723 mmHg 67%
    20:00 +12°C° 0 mm 3 mps 723 mmHg 71%
    21:00 +12°C° 0 mm 2 mps 724 mmHg 75%
    22:00 +10°C° 0 mm 2 mps 724 mmHg 79%
    23:00 +9°C° 0 mm 2 mps 724 mmHg 81%

    Tomorrow, 20 April, Saturday

    Time Temperature Precipitation Wind Pressure Humidity
    00:00 +8°C° 0 mm 2 mps 724 mmHg 84%
    01:00 +8°C° 0 mm 1 mps 724 mmHg 86%
    02:00 +8°C° 0 mm 1 mps 724 mmHg 86%
    03:00 +7°C° 0 mm 1 mps 724 mmHg 85%
    04:00 +7°C° 0 mm 1 mps 724 mmHg 85%
    05:00 +8°C° 0 mm 1 mps 724 mmHg 81%
    06:00 +9°C° 0 mm 1 mps 724 mmHg 77%
    07:00 +9°C° 0 mm 1 mps 724 mmHg 73%
    08:00 +12°C° 0 mm 1 mps 724 mmHg 66%
    09:00 +14°C° 0 mm 2 mps 724 mmHg 60%
    10:00 +16°C° 0 mm 2 mps 723 mmHg 53%
    11:00 +17°C° 0 mm 3 mps 723 mmHg 50%
    12:00 +19°C° 0 mm 4 mps 723 mmHg 48%
    13:00 +20°C° 0 mm 4 mps 723 mmHg 45%
    14:00 +20°C° 0 mm 4 mps 723 mmHg 45%
    15:00 +20°C° 0 mm 4 mps 722 mmHg 45%
    16:00 +20°C° 0 mm 4 mps 722 mmHg 45%
    17:00 +18°C° 0 mm 4 mps 722 mmHg 50%
    18:00 +16°C° 0 mm 3 mps 722 mmHg 56%
    19:00 +13°C° 0 mm 3 mps 721 mmHg 62%
    20:00 +12°C° 0 mm 3 mps 721 mmHg 65%
    21:00 +12°C° 0 mm 2 mps 722 mmHg 69%
    22:00 +9°C° 0 mm 2 mps 722 mmHg 72%
    23:00 +9°C° 0 mm 2 mps 721 mmHg 75%

    Day after tomorrow, 21 April, Sunday

    Time Temperature Precipitation Wind Pressure Humidity
    00:00 +8°C° 0 mm 2 mps 721 mmHg 78%
    01:00 +7°C° 0 mm 2 mps 721 mmHg 80%
    02:00 +7°C° 0 mm 2 mps 721 mmHg 81%
    03:00 +7°C° 0 mm 1 mps 721 mmHg 82%
    04:00 +7°C° 0 mm 1 mps 720 mmHg 83%
    05:00 +7°C° 0 mm 1 mps 720 mmHg 80%
    06:00 +7°C° 0 mm 2 mps 720 mmHg 76%
    07:00 +8°C° 0 mm 2 mps 720 mmHg 73%
    08:00 +10°C° 0 mm 2 mps 720 mmHg 67%
    09:00 +12°C° 0 mm 3 mps 719 mmHg 61%
    10:00 +16°C° 0 mm 3 mps 719 mmHg 55%
    11:00 +17°C° 0 mm 4 mps 719 mmHg 51%
    12:00 +18°C° 0 mm 4 mps 718 mmHg 48%
    13:00 +19°C° 0 mm 5 mps 718 mmHg 44%
    14:00 +19°C° 0 mm 5 mps 717 mmHg 44%
    15:00 +19°C° 0 mm 5 mps 717 mmHg 43%
    16:00 +19°C° 0 mm 5 mps 716 mmHg 42%
    17:00 +17°C° 0 mm 4 mps 716 mmHg 48%
    18:00 +16°C° 0 mm 3 mps 716 mmHg 54%
    19:00 +13°C° 0 mm 3 mps 715 mmHg 60%
    20:00 +12°C° 0 mm 3 mps 715 mmHg 66%
    21:00 +10°C° 0 mm 3 mps 715 mmHg 71%
    22:00 +9°C° 0 mm 3 mps 716 mmHg 76%
    23:00 +8°C° 0 mm 2 mps 715 mmHg 79%

    22 April, Monday

    Time Temperature Precipitation Wind Pressure Humidity
    00:00 +8°C° 0 mm 2 mps 715 mmHg 82%
    01:00 +7°C° 0 mm 2 mps 715 mmHg 85%
    02:00 +6°C° 0 mm 2 mps 714 mmHg 85%
    03:00 +6°C° 0 mm 2 mps 714 mmHg 85%
    04:00 +6°C° 0 mm 1 mps 713 mmHg 85%
    05:00 +6°C° 0 mm 2 mps 713 mmHg 81%
    06:00 +7°C° 0 mm 2 mps 713 mmHg 77%
    07:00 +8°C° 0 mm 2 mps 712 mmHg 74%
    08:00 +10°C° 0 mm 2 mps 712 mmHg 69%
    09:00 +12°C° 0 mm 3 mps 711 mmHg 65%
    10:00 +14°C° 0 mm 4 mps 711 mmHg 61%
    11:00 +15°C° 0 mm 4 mps 710 mmHg 59%
    12:00 +17°C° 0 mm 5 mps 709 mmHg 57%
    13:00 +19°C° 0 mm 5 mps 709 mmHg 55%
    14:00 +19°C° 0 mm 5 mps 708 mmHg 55%
    15:00 +19°C° 0 mm 5 mps 708 mmHg 56%
    16:00 +19°C° 0 mm 5 mps 707 mmHg 56%
    17:00 +16°C° 0 mm 5 mps 707 mmHg 63%
    18:00 +15°C° 0 mm 4 mps 706 mmHg 69%
    19:00 +13°C° 0 mm 3 mps 706 mmHg 76%
    20:00 +12°C° 0 mm 3 mps 706 mmHg 80%
    21:00 +11°C° 0 mm 3 mps 705 mmHg 83%
    22:00 +10°C° 0 mm 2 mps 705 mmHg 86%
    23:00 +9°C° 0 mm 2 mps 705 mmHg 86%

    23 April, Tuesday

    Time Temperature Precipitation Wind Pressure Humidity
    00:00 +9°C° 0 mm 1 mps 704 mmHg 86%
    01:00 +9°C° 0 mm 1 mps 704 mmHg 86%
    02:00 +9°C° 0 mm 1 mps 704 mmHg 83%
    03:00 +8°C° 0 mm 1 mps 703 mmHg 81%
    04:00 +8°C° 0 mm 1 mps 703 mmHg 79%
    05:00 +9°C° 0 mm 1 mps 703 mmHg 76%
    06:00 +10°C° 0 mm 1 mps 703 mmHg 72%
    07:00 +11°C° 0 mm 1 mps 703 mmHg 69%
    08:00 +13°C° 0 mm 1 mps 703 mmHg 63%
    09:00 +15°C° 0 mm 1 mps 704 mmHg 58%
    10:00 +18°C° 0 mm 1 mps 704 mmHg 52%
    11:00 +19°C° 0 mm 1 mps 704 mmHg 51%
    12:00 +19°C° 0 mm 2 mps 704 mmHg 50%
    13:00 +20°C° 0 mm 2 mps 704 mmHg 49%
    14:00 +20°C° 0 mm 2 mps 704 mmHg 50%
    15:00 +21°C° 0 mm 1 mps 704 mmHg 50%
    16:00 +21°C° 0 mm 1 mps 704 mmHg 51%
    17:00 +20°C° 0 mm 1 mps 705 mmHg 57%
    18:00 +18°C° 0 mm 1 mps 705 mmHg 63%
    19:00 +16°C° 0 mm 1 mps 705 mmHg 69%
    20:00 +15°C° 0 mm 1 mps 706 mmHg 72%
    21:00 +14°C° 0 mm 1 mps 707 mmHg 75%
    22:00 +12°C° 0 mm 0 mps 707 mmHg 79%
    23:00 +13°C° 0 mm 1 mps 708 mmHg 79%

    24 April, Wednesday

    Time Temperature Precipitation Wind Pressure Humidity
    00:00 +13°C° 0 mm 1 mps 708 mmHg 79%
    01:00 +13°C° 0 mm 2 mps 709 mmHg 79%
    02:00 +12°C° 0.1 mm 2 mps 709 mmHg 78%
    03:00 +12°C° 0.1 mm 2 mps 710 mmHg 78%
    04:00 +11°C° 0.1 mm 1 mps 710 mmHg 77%
    05:00 +12°C° 0.3 mm 1 mps 711 mmHg 76%
    06:00 +12°C° 0.3 mm 1 mps 711 mmHg 76%
    07:00 +13°C° 0.3 mm 1 mps 711 mmHg 75%
    08:00 +15°C° 0 mm 1 mps 712 mmHg 67%
    09:00 +19°C° 0 mm 1 mps 712 mmHg 60%
    10:00 +19°C° 0 mm 0 mps 713 mmHg 52%
    11:00 +22°C° 0 mm 1 mps 713 mmHg 50%
    12:00 +23°C° 0 mm 2 mps 713 mmHg 48%
    13:00 +24°C° 0 mm 2 mps 713 mmHg 46%
    14:00 +24°C° 0 mm 3 mps 713 mmHg 47%
    15:00 +24°C° 0 mm 3 mps 713 mmHg 49%
    16:00 +24°C° 0 mm 3 mps 713 mmHg 50%
    17:00 +21°C° 0 mm 3 mps 713 mmHg 57%
    18:00 +20°C° 0 mm 3 mps 713 mmHg 64%
    19:00 +18°C° 0 mm 2 mps 713 mmHg 72%
    20:00 +17°C° 0 mm 2 mps 713 mmHg 74%
    21:00 +16°C° 0 mm 3 mps 714 mmHg 77%
    22:00 +14°C° 0 mm 3 mps 714 mmHg 79%
    23:00 +14°C° 0 mm 3 mps 714 mmHg 80%
    Show more